カタログに戻る

CZ-6A DEB

運用中PO
NORAD 60716·DEBRIS·🇨🇳 China

打ち上げ Aug 6, 2024 から Taiyuan Satellite Launch Center

Loading…

次のパス (今後24時間)

TLE

最新Source: Space-Track

元期: Sep 14, 2026, 06:49 UTC

1 60716U 24140DV  26257.28451956  .00000295  00000-0  52421-4 0  9997
2 60716  89.0816 267.1706 0130349 266.1098  92.5203 14.59101387111266

AllMySatでCZ-6A DEBをリアルタイム追跡

Download on the App Store